Temp
32 34 32 33 36 37 38 38 39 45 46 47 47 48 48 48 48 48 48 49 49 50 50 50 50 51 51
32 31 31 32 34 34 37 40 39 43 45 46 46 46 46 46 46 46 47 47 47 48 48 49 50 49 50
30 33 32 33 32 33 34 35 38 42 43 43 44 44 44 45 45 45 45 45 45 46 46 47 48 49 49
29 28 30 33 32 30 30 33 33 38 39 40 41 42 42 43 42 42 42 43 44 45 45 45 46 46 47
27 27 30 30 28 30 29 31 32 33 32 32 32 34 34 38 38 40 40 43 44 44 45 45 45 45 46
28 28 29 28 30 30 28 26 25 33 31 30 33 31 32 33 38 40 41 41 43 43 43 44 45 45 45
29 28 28 30 28 26 27 27 28 31 30 27 31 29 32 35 38 39 40 41 41 43 43 44 44 45 45
32 32 31 33 34 32 31 29 29 30 30 24 29 28 31 31 37 38 39 40 41 42 42 42 43 43 44
39 39 39 39 38 33 26 24 23 26 30 26 26 25 27 28 31 36 38 39 39 40 40 41 42 42 41
29 31 33 30 36 30 27 22 22 22 27 23 24 24 22 23 26 28 29 34 36 38 39 40 40 37 36
28 28 29 28 29 29 28 26 23 22 29 28 24 24 23 23 26 27 28 29 29 31 36 37 38 38 35
26 25 25 25 26 26 27 26 26 25 27 26 23 23 23 21 21 26 27 28 28 27 28 33 37 39 40
23 23 24 25 25 25 25 25 24 26 27 27 25 24 23 21 21 23 25 27 29 29 27 30 31 33 32
23 24 25 24 23 24 22 23 22 23 27 26 25 25 23 24 24 24 27 25 29 30 31 32 33 34 34
22 23 23 23 23 24 23 21 20 21 21 25 26 26 26 25 23 25 26 27 29 31 31 29 31 33 33
22 22 21 21 21 23 24 22 20 21 21 23 23 23 25 27 32 26 27 28 29 30 31 28 29 32 35
21 21 21 21 23 21 21 21 21 21 22 23 23 24 21 20 30 38 29 29 29 29 30 30 29 32 35
MSLP
1020.69 1020.37 1020.06 1019.56 1019.09 1018.68 1018.27 1017.72 1017.12 1016.53 1015.89 1015.14 1014.47 1013.88 1013.45 1012.92 1012.52 1011.97 1011.58 1011.14 1010.65 1010.14 1009.73 1009.37 1008.98 1008.62 1008.36
1020.34 1020.05 1019.63 1019.15 1018.79 1018.32 1017.73 1017.07 1016.52 1015.93 1015.25 1014.50 1013.95 1013.50 1012.87 1012.36 1011.70 1011.27 1010.67 1010.17 1009.71 1009.23 1008.80 1008.43 1007.96 1007.69 1007.41
1019.69 1019.45 1019.10 1018.71 1018.04 1017.58 1017.06 1016.34 1015.83 1015.18 1014.57 1014.00 1013.39 1012.83 1012.28 1011.52 1011.06 1010.43 1009.98 1009.55 1008.97 1008.41 1007.93 1007.48 1007.00 1006.65 1006.44
1019.44 1019.14 1018.74 1017.90 1017.43 1016.92 1016.12 1015.77 1015.01 1014.46 1013.89 1013.21 1012.73 1012.05 1011.60 1010.98 1010.54 1009.89 1009.38 1008.80 1008.15 1007.44 1006.81 1006.37 1006.03 1005.73 1005.35
1019.09 1018.66 1018.03 1017.38 1017.05 1016.44 1015.84 1014.97 1014.11 1013.71 1012.88 1012.41 1012.30 1011.57 1011.02 1010.36 1009.82 1009.13 1008.52 1007.64 1006.87 1006.30 1005.75 1005.20 1004.90 1004.64 1004.26
1018.45 1017.96 1017.50 1017.07 1016.59 1016.07 1015.39 1014.75 1013.12 1012.46 1012.16 1011.88 1011.40 1010.65 1010.07 1009.56 1008.85 1007.97 1007.14 1006.68 1005.89 1005.29 1004.74 1004.14 1003.74 1003.45 1003.16
1017.66 1017.39 1016.82 1016.42 1015.90 1015.35 1014.78 1014.13 1013.10 1012.15 1011.99 1010.94 1010.34 1009.62 1009.10 1008.41 1007.79 1006.92 1006.17 1005.53 1004.90 1004.15 1003.56 1003.03 1002.66 1002.31 1002.00
1016.86 1016.38 1015.91 1015.29 1014.93 1014.44 1013.95 1013.46 1012.65 1011.79 1011.52 1010.36 1009.61 1008.75 1008.14 1007.58 1006.74 1005.89 1005.23 1004.64 1003.93 1003.21 1002.76 1002.35 1001.81 1001.41 1000.91
1015.77 1015.40 1015.02 1014.57 1014.14 1013.80 1013.62 1013.31 1012.09 1011.12 1010.62 1010.11 1008.87 1008.25 1007.50 1006.34 1005.48 1004.85 1004.29 1003.77 1003.30 1002.64 1002.11 1001.45 1000.85 1000.33 999.99
1015.39 1015.05 1014.66 1014.34 1013.76 1013.67 1013.32 1012.92 1012.05 1010.64 1009.67 1009.68 1008.76 1008.41 1006.20 1004.98 1004.49 1004.24 1003.62 1003.07 1002.39 1001.64 1000.98 1000.40 999.92 999.66 999.19
1015.03 1014.57 1014.13 1013.71 1013.28 1012.89 1012.71 1012.47 1011.56 1010.65 1009.26 1009.21 1008.16 1007.75 1007.35 1005.27 1003.78 1003.30 1002.73 1001.73 1001.22 1000.45 999.99 999.40 998.90 998.67 998.12
1014.78 1014.25 1013.79 1013.25 1012.77 1012.34 1011.84 1011.44 1010.86 1010.11 1008.84 1008.64 1007.72 1007.11 1006.20 1005.03 1003.62 1001.99 1001.43 1000.78 1000.19 999.46 998.96 998.29 997.70 997.20 996.78
1014.60 1014.00 1013.56 1012.93 1012.28 1011.66 1010.87 1010.34 1009.56 1008.63 1007.78 1007.30 1006.91 1006.06 1005.51 1004.38 1003.05 1001.62 1000.39 999.42 998.89 998.29 997.88 997.21 996.58 996.03 995.41
1014.43 1013.75 1013.06 1012.39 1011.60 1010.94 1010.37 1009.52 1008.78 1007.17 1006.44 1005.97 1005.46 1004.99 1004.05 1003.19 1002.23 1000.57 999.67 999.03 997.92 997.33 996.51 995.64 995.09 994.72 994.05
1014.05 1013.32 1012.57 1011.85 1010.97 1010.19 1009.68 1008.95 1008.28 1006.95 1005.57 1004.52 1003.99 1003.52 1002.86 1002.16 1000.87 999.46 998.40 997.57 996.74 995.90 995.35 994.36 993.45 992.88 992.33
1013.64 1012.97 1012.17 1011.35 1010.53 1009.59 1008.91 1008.31 1007.39 1006.20 1005.15 1003.99 1003.22 1002.27 1001.02 999.95 999.50 998.00 997.01 996.21 995.28 994.66 994.16 993.29 991.72 990.78 990.43
1013.17 1012.32 1011.55 1010.72 1009.84 1008.96 1008.19 1007.36 1006.30 1005.32 1004.19 1003.41 1002.56 1001.52 1000.08 998.32 996.91 996.53 995.93 995.07 994.20 993.40 992.70 991.85 990.77 989.15 988.92
Wind_Speed
3 4 4 7 8 7 10 11 10 22 27 28 27 26 29 27 30 29 29 29 29 30 29 30 30 30 29
7 4 6 6 9 11 10 10 11 19 26 26 28 28 29 29 28 27 29 29 28 29 30 30 30 29 30
9 7 5 7 10 10 10 10 9 20 23 27 26 28 27 28 28 28 28 29 29 28 28 29 29 28 28
7 7 7 9 7 8 10 8 10 10 17 23 24 24 27 28 28 27 27 27 27 27 28 28 28 28 29
6 7 10 9 9 8 10 11 12 11 10 9 6 10 12 19 21 26 25 27 29 29 28 28 27 28 28
7 9 10 9 9 10 11 11 13 7 3 9 10 11 10 9 22 28 30 29 28 28 28 27 26 25 25
11 10 11 11 10 10 12 11 11 11 10 12 11 12 10 11 25 30 30 30 28 25 24 23 24 25 26
9 10 10 11 11 11 12 10 11 11 9 13 10 13 11 10 26 30 28 25 25 25 27 27 25 25 26
21 21 22 25 19 10 9 9 12 12 9 10 7 10 12 13 12 22 22 23 27 27 26 26 27 26 18
5 10 12 11 19 9 7 10 11 11 4 4 9 7 8 4 5 7 10 19 26 27 27 26 26 11 10
8 7 8 8 8 7 7 8 10 11 15 11 8 10 8 11 8 9 10 12 10 14 23 26 25 19 10
8 8 8 9 9 9 11 11 11 14 16 14 9 11 11 13 15 9 10 11 10 10 9 17 23 23 23
8 9 8 9 11 10 11 11 12 13 12 14 11 12 10 12 13 14 15 10 11 11 8 10 11 10 12
9 9 9 9 10 8 9 10 10 12 10 10 11 11 12 12 12 14 13 11 10 11 12 12 12 11 12
8 9 10 10 10 9 8 9 9 11 13 11 10 11 12 15 15 14 14 13 12 13 12 12 12 12 12
9 9 10 10 10 10 9 9 10 11 12 11 11 11 11 11 20 14 13 12 12 12 12 13 14 12 11
9 10 10 10 14 10 10 9 10 11 12 10 10 10 13 15 10 15 10 11 12 13 11 12 13 15 12
Wind_Direction
268 286 291 293 295 298 295 293 291 295 301 302 298 303 302 300 300 297 297 292 289 286 285 283 282 279 278
297 282 279 278 288 292 287 286 288 292 297 299 303 302 298 298 295 297 293 294 295 292 289 284 282 279 277
288 291 287 293 288 281 281 283 280 288 295 296 298 298 295 299 299 296 298 297 293 290 286 283 280 279 279
285 291 284 299 288 296 298 293 289 289 289 287 292 289 298 297 295 294 293 293 290 286 285 284 281 279 276
276 292 298 309 301 300 291 297 292 291 281 281 273 284 285 290 288 291 289 288 290 289 287 283 280 277 274
289 294 298 299 298 296 293 297 301 287 271 291 289 286 285 279 283 289 294 295 289 289 286 281 280 278 276
298 288 288 289 287 287 282 278 286 298 295 292 292 284 284 281 288 290 292 293 293 290 285 283 288 285 283
273 281 276 279 285 292 297 296 289 291 289 285 290 286 289 283 285 287 289 290 288 292 298 291 286 285 280
295 301 305 306 305 306 299 302 295 294 292 286 287 288 288 279 271 275 284 290 294 291 290 287 286 283 282
290 300 296 282 298 293 284 286 288 297 287 295 299 302 297 229 265 276 278 278 286 287 288 287 286 281 271
303 301 299 295 292 286 278 273 283 278 283 293 292 289 268 296 284 282 280 282 274 278 281 282 282 275 269
306 302 300 297 295 291 286 275 264 266 280 281 276 281 284 284 290 288 281 282 274 272 271 275 281 282 281
300 295 293 289 290 287 286 275 270 268 268 267 263 274 268 273 278 284 290 294 281 272 270 271 276 276 280
293 291 295 295 292 291 287 297 293 292 275 255 257 257 268 265 270 278 282 281 285 281 279 278 276 268 265
297 299 298 298 294 296 288 287 279 294 297 296 276 258 257 266 276 272 276 276 275 278 279 278 275 267 264
297 293 294 295 295 293 292 290 286 288 287 288 293 294 285 260 240 266 272 274 278 276 273 273 277 274 263
292 292 292 288 299 296 293 286 286 286 285 287 284 286 296 295 289 262 276 277 279 278 270 266 270 276 275